カタログに戻る

THOR ABLESTAR DEB

運用中LEO
NORAD 657·DEBRIS·🇺🇸 United States

打ち上げ Jun 29, 1961 から Cape Canaveral Space Force Station

Loading…

次のパス (今後24時間)

TLE

最新Source: Space-Track

元期: Sep 14, 2026, 03:58 UTC

1 00657U 61015HJ  26257.16563433  .00000260  00000-0  68163-3 0  9999
2 00657  66.2492 165.1287 0342511 338.9185 173.1997 13.11890909116299

AllMySatでTHOR ABLESTAR DEBをリアルタイム追跡

Download on the App Store